Flag for U.S.A. Weather past 2 weeks in Durham, North Carolina, U.S.A.

Now
64 °F

Broken clouds.


Feels Like: 64 °F
Forecast: 60 / 85 °F
Wind: No wind

Location: Raleigh-Durham International Airport

Current Time: Aug 29, 2015 at 8:55:15 AM

Latest Report: Aug 29, 2015 at 7:51 AM


Visibility: 8 mi

Pressure: 30.23 "Hg

Humidity: 94%

Dew point: 62 °F

Location of DurhamLocation

Historic Weather in Durham — Graph

°F

Durham temperature yesterday

Maximum temperature yesterday: 86 °F (at 3:51 PM)
Minimum temperature yesterday: 61 °F (at 6:51 AM)
Average temperature yesterday: 74 °F

Past Weeks' High & Low Weather Summary

 TemperatureHumidityPressure
High94 °F (Aug 17, 3:51 PM)97% (Aug 20, 3:51 AM)30.23 "Hg (Aug 20, 3:51 AM)
Low60 °F (Aug 29, 5:51 AM)30% (Aug 17, 3:51 PM)29.85 "Hg (Aug 24, 6:51 PM)
Average77 °F69%30.03 "Hg
* Reported Aug 14 7:51 AM — Aug 29 7:51 AM, Durham, Weather by CustomWeather, © 2015

Note: Actual official high and low records may vary slightly from our data, if they occured in-between our weather recording intervals... More about our weather records

Advertising

Durham weather history for previous 24 hours

 ConditionsComfort  
Time TempWeatherWind HumidityBarometerVisibility
7:51 AM
Sat, Aug 29
64 °FBroken clouds.No wind94%30.23 "Hg8 mi
6:51 AM60 °FPassing clouds.No wind96%30.22 "Hg8 mi
5:51 AM60 °FPassing clouds.No wind93%30.19 "Hg7 mi
4:51 AM62 °FPassing clouds.No wind93%30.19 "Hg8 mi
2:51 AM64 °FPassing clouds.No wind87%30.18 "Hg10 mi
1:51 AM66 °FPassing clouds.No wind81%30.19 "Hg10 mi
12:51 AM68 °FPassing clouds.No wind78%30.20 "Hg10 mi
11:51 PM
Fri, Aug 28
72 °FPassing clouds.6 mph66%30.18 "Hg10 mi
10:51 PM74 °FPassing clouds.6 mph62%30.18 "Hg10 mi
9:51 PM73 °FPassing clouds.6 mph62%30.17 "Hg10 mi
8:51 PM74 °FPassing clouds.3 mph60%30.15 "Hg10 mi
7:51 PM79 °FScattered clouds.5 mph47%30.13 "Hg10 mi
6:51 PM83 °FScattered clouds.7 mph40%30.12 "Hg10 mi
5:51 PM83 °FScattered clouds.7 mph38%30.12 "Hg10 mi
4:51 PM85 °FBroken clouds.6 mph37%30.12 "Hg10 mi
3:51 PM86 °FBroken clouds.No wind35%30.13 "Hg10 mi
2:51 PM85 °FBroken clouds.6 mph39%30.15 "Hg10 mi
1:51 PM84 °FBroken clouds.7 mph38%30.16 "Hg10 mi
12:51 PM83 °FScattered clouds.8 mph43%30.19 "Hg10 mi
11:51 AM81 °FScattered clouds.8 mph45%30.20 "Hg10 mi
10:51 AM78 °FScattered clouds.12 mph52%30.20 "Hg10 mi
9:51 AM75 °FScattered clouds.6 mph62%30.19 "Hg10 mi
8:51 AM70 °FPassing clouds.3 mph76%30.18 "Hg10 mi
Weather by CustomWeather, © 2015

See weather overviewHow to use our weather pages